Time,TemperatureF,DewpointF,PressureIn,WindDirection,WindDirectionDegrees,WindSpeedMPH,WindSpeedGustMPH,Humidity,HourlyPrecipIn,Conditions,Clouds,dailyrainin,SoftwareType,DateUTC
2013-09-24 00:00:00,28.0,19.0,-100.00,WNW,286,17.0,25.0,69,-99.99,,,-99.99,,2013-09-24 06:00:00,
2013-09-24 00:52:00,28.0,19.0,-100.00,WNW,286,17.0,25.0,69,-99.99,,,-99.99,,2013-09-24 06:52:00,
2013-09-24 02:00:00,29.0,18.0,-100.00,West,279,18.0,26.0,64,-99.99,,,-99.99,,2013-09-24 08:00:00,
2013-09-24 02:52:00,29.0,18.0,-100.00,West,279,18.0,26.0,64,-99.99,,,-99.99,,2013-09-24 08:52:00,
2013-09-24 04:00:00,30.0,19.0,-100.00,West,279,12.0,21.0,63,-99.99,,,-99.99,,2013-09-24 10:00:00,
2013-09-24 04:53:00,30.0,19.0,-100.00,West,279,12.0,21.0,63,-99.99,,,-99.99,,2013-09-24 10:53:00,
2013-09-24 06:00:00,30.0,13.0,-100.00,SSW,205,8.0,15.0,48,-99.99,,,-99.99,,2013-09-24 12:00:00,
2013-09-24 06:52:00,30.0,13.0,-100.00,SSW,205,8.0,15.0,48,-99.99,,,-99.99,,2013-09-24 12:52:00,
2013-09-24 10:00:00,36.0,-99.9,-100.00,WSW,258,9.0,21.0,25,-99.99,,,-99.99,,2013-09-24 16:00:00,
2013-09-24 10:53:00,36.0,-99.9,-100.00,WSW,258,9.0,21.0,25,-99.99,,,-99.99,,2013-09-24 16:53:00,
2013-09-24 13:00:00,41.0,6.0,-100.00,WSW,247,15.0,26.0,23,-99.99,,,-99.99,,2013-09-24 19:00:00,
2013-09-24 13:52:00,41.0,6.0,-100.00,WSW,247,15.0,26.0,23,-99.99,,,-99.99,,2013-09-24 19:52:00,
2013-09-24 15:00:00,44.0,9.0,-100.00,WSW,250,14.0,28.0,23,-99.99,,,-99.99,,2013-09-24 21:00:00,
2013-09-24 15:54:00,44.0,9.0,-100.00,WSW,250,14.0,28.0,23,-99.99,,,-99.99,,2013-09-24 21:54:00,
2013-09-24 17:00:00,46.0,10.0,-100.00,West,268,10.0,24.0,23,-99.99,,,-99.99,,2013-09-24 23:00:00,
2013-09-24 17:53:00,46.0,10.0,-100.00,West,268,10.0,24.0,23,-99.99,,,-99.99,,2013-09-24 23:53:00,
2013-09-24 19:00:00,44.0,12.0,-100.00,WSW,244,12.0,22.0,27,-99.99,,,-99.99,,2013-09-25 01:00:00,
2013-09-24 19:52:00,44.0,12.0,-100.00,WSW,244,12.0,22.0,27,-99.99,,,-99.99,,2013-09-25 01:52:00,
2013-09-24 22:00:00,41.0,4.0,-100.00,SW,216,12.0,23.0,21,-99.99,,,-99.99,,2013-09-25 04:00:00,
2013-09-24 22:54:00,41.0,4.0,-100.00,SW,216,12.0,23.0,21,-99.99,,,-99.99,,2013-09-25 04:54:00,
2013-09-24 23:00:00,41.0,3.0,-100.00,SSW,203,18.0,29.0,20,-99.99,,,-99.99,,2013-09-25 05:00:00,
2013-09-24 23:53:00,41.0,3.0,-100.00,SSW,203,18.0,29.0,20,-99.99,,,-99.99,,2013-09-25 05:53:00,